Bandera, Texas, United States (78003)
Lat: 29.73N, Lon: 99.07W
Wx Zone: TXZ187
Local Info
Past Weather Observations for Yesterday

NOTE: This archive is for the closest National Weather Service station to Bandera. Information may differ from the station used for current weather conditions.

Click here for Long-term Archive

Time Weather Temperature Dewpoint Humidity Pressure Winds Precip Visibility
23:51
Mostly Cloudy
66°F / 19°C 61°F / 16°C 83% 30.04 in
(1017 mb)
SE 9.2 mph
(SE 15 kph)
- 10SM
22:51
Partly Cloudy
66°F / 19°C 57°F / 14°C 73% 30.06 in
(1018 mb)
ESE 5.8 mph
(ESE 9 kph)
- 10SM
21:51
Clear
70°F / 21°C 57°F / 14°C 64% 30.06 in
(1018 mb)
ESE 8.1 mph
(ESE 13 kph)
- 10SM
20:51
Overcast
70°F / 21°C 55°F / 13°C 60% 30.06 in
(1018 mb)
E 6.9 mph
(E 11 kph)
- 10SM
19:51
Clear
68°F / 20°C 55°F / 13°C 64% 30.04 in
(1017 mb)
E 5.8 mph
(E 9 kph)
- 10SM
18:51
Clear
75°F / 24°C 55°F / 13°C 50% 30.04 in
(1017 mb)
E 5.8 mph
(E 9 kph)
- 10SM
17:51
Clear
79°F / 26°C 55°F / 13°C 45% 30.04 in
(1017 mb)
E 9.2 mph
(E 15 kph)
- 10SM
16:51
Clear
81°F / 27°C 55°F / 13°C 42% 30.01 in
(1016 mb)
SE 12.7 mph
(SE 20 kph)
- 10SM
15:51
Clear
81°F / 27°C 57°F / 14°C 45% 30.04 in
(1017 mb)
E 13.8 mph
(E 22 kph)
- 10SM
14:51
Partly Cloudy
81°F / 27°C 55°F / 13°C 42% 30.04 in
(1017 mb)
E 13.8 mph
(E 22 kph)
- 10SM
13:51
Partly Cloudy
81°F / 27°C 55°F / 13°C 42% 30.04 in
(1017 mb)
E 11.5 mph
(E 19 kph)
- 10SM
12:51
Clear
81°F / 27°C 57°F / 14°C 45% 30.06 in
(1018 mb)
ESE 10.4 mph
(ESE 17 kph)
- 10SM
11:51
Partly Cloudy
79°F / 26°C 59°F / 15°C 51% 30.09 in
(1019 mb)
SE 15 mph
(SE 24 kph)
- 10SM
10:51
Partly Cloudy
77°F / 25°C 61°F / 16°C 57% 30.09 in
(1019 mb)
ESE 16.1 mph
(ESE 26 kph)
- 10SM
09:51
Clear
75°F / 24°C 63°F / 17°C 65% 30.09 in
(1019 mb)
ESE 17.3 mph
(ESE 28 kph)
- 10SM
08:51
Clear
73°F / 23°C 64°F / 18°C 74% 30.09 in
(1019 mb)
E 12.7 mph
(E 20 kph)
- 10SM
07:51
Clear
66°F / 19°C 66°F / 19°C 100% 30.09 in
(1019 mb)
ENE 9.2 mph
(ENE 15 kph)
- 10SM
06:51
Clear
64°F / 18°C 64°F / 18°C 100% 30.06 in
(1018 mb)
ENE 4.6 mph
(ENE 7 kph)
- 7SM
05:51
Clear
66°F / 19°C 66°F / 19°C 100% 30.06 in
(1018 mb)
E 6.9 mph
(E 11 kph)
- 10SM
05:00
Partly Cloudy
66°F / 19°C 66°F / 19°C 100% 30.06 in
(1018 mb)
E 8.1 mph
(E 13 kph)
- 10SM
04:51
Mostly Cloudy
66°F / 19°C 66°F / 19°C 100% 30.06 in
(1018 mb)
ENE 8.1 mph
(ENE 13 kph)
- 10SM
04:44
Mostly Cloudy
66°F / 19°C 66°F / 19°C 100% 30.06 in
(1018 mb)
ENE 6.9 mph
(ENE 11 kph)
- 10SM
04:34
Mostly Cloudy
66°F / 19°C 66°F / 19°C 100% 30.06 in
(1018 mb)
E 5.8 mph
(E 9 kph)
- 10SM
03:46
Partly Cloudy
66°F / 19°C 66°F / 19°C 100% 30.04 in
(1017 mb)
E 6.9 mph
(E 11 kph)
- 10SM
03:45
Partly Cloudy
66°F / 19°C 66°F / 19°C 100% 30.04 in
(1017 mb)
E 6.9 mph
(E 11 kph)
- 10SM
03:34
Mostly Cloudy
66°F / 19°C 66°F / 19°C 100% 30.04 in
(1017 mb)
E 6.9 mph
(E 11 kph)
- 10SM
03:10
Mostly Cloudy
66°F / 19°C 66°F / 19°C 100% 30.06 in
(1018 mb)
E 5.8 mph
(E 9 kph)
- 10SM
02:51
Partly Cloudy
66°F / 19°C 66°F / 19°C 100% 30.06 in
(1018 mb)
E 5.8 mph
(E 9 kph)
- 10SM
01:51
Partly Cloudy
70°F / 21°C 66°F / 19°C 88% 30.06 in
(1018 mb)
E 6.9 mph
(E 11 kph)
- 10SM
00:51
Partly Cloudy
68°F / 20°C 66°F / 19°C 94% 30.06 in
(1018 mb)
E 5.8 mph
(E 9 kph)
- 10SM
00:35
Mostly Cloudy
72°F / 22°C 66°F / 19°C 83% 30.06 in
(1018 mb)
E 5.8 mph
(E 9 kph)
- 10SM
00:18
Mostly Cloudy
70°F / 21°C 66°F / 19°C 88% 30.06 in
(1018 mb)
E 6.9 mph
(E 11 kph)
- 10SM
00:07
Mostly Cloudy
70°F / 21°C 64°F / 18°C 83% 30.06 in
(1018 mb)
E 5.8 mph
(E 9 kph)
- 10SM
Time Weather Temperature Dewpoint Humidity Pressure Winds Precip Visibility


Weather for websites

WeatherForYou.com, LLC is not responsible for any damages or problems caused by this service. Current weather conditions are obtained from the closest station including government and personal stations which may have varying degrees of accuracy. Weather forecasts are derived from the NOAA NDFD. Like all things, this site belongs to Jesus Christ... He just trusts me to maintain it. If you have any questions or comments email webmaster@weatherforyou.com

Copyright © 2014, WeatherForYou.com LLC. All rights reserved.